Weather History for PAJN - March, 2014

Change the Weather History Date:

Saturday, March 22, 2014

  Actual Average Record
Temperature  
Mean Temperature 30 °F 35 °F  
Max Temperature 38 °F 41 °F 55 °F (1998)
Min Temperature 22 °F 29 °F 7 °F (2001)
Degree Days  
Heating Degree Days 35 30  
Month to date heating degree days 751 705  
Since 1 July heating degree days 6392 6542  
Cooling Degree Days 0 0  
Month to date cooling degree days 0 0  
Year to date cooling degree days 0 0  
Moisture  
Dew Point 15 °F    
Average Humidity 60    
Maximum Humidity 88    
Minimum Humidity 32    
Precipitation  
Precipitation 0.00 in 0.12 in 0.75 in (1993)
Month to date precipitation 3.45 2.80  
Year to date precipitation 15.58 12.28  
Snow  
Snow 0.00 in 0.30 in 2.20 in (1953)
Month to date snowfall 6.0 9.5  
Since 1 July snowfall 96.8 83.5  
Snow Depth 0.00 in    
Sea Level Pressure  
Sea Level Pressure 30.38 in    
Wind  
Wind Speed 9 mph (East)    
Max Wind Speed 24 mph    
Max Gust Speed 30 mph    
Visibility 10 miles    
Events      
T = Trace of Precipitation, MM = Missing Value Source: NWS Daily Summary

Daily Weather History Graph

Daily Weather History Graph

Search for Another Location

Airport or City:

Trip Planner

Search our weather history database for the weather conditions in past years. The results will help you decide how hot, cold, wet, or windy it might be!

Date:

Astronomy

Mar. 22, 2014 Rise Set
Actual Time 6:53 AM AKDT 7:17 PM AKDT
Civil Twilight 6:14 AM AKDT 7:57 PM AKDT
Nautical Twilight 5:26 AM AKDT 8:45 PM AKDT
Astronomical Twilight 4:34 AM AKDT 9:37 PM AKDT
Moon 1:48 AM AKDT (3/22) 9:37 AM AKDT (3/22)
Length of Visible Light 13h 43m
Length of Day
12h 23m
Waning Gibbous, 64% of the Moon is Illuminated
Mar 22
Waning Gibbous
Mar 23
Last Quarter
Mar 30
New
Apr 7
First Quarter
Apr 14
Full

Hourly Weather History & Observations

Time (AKDT) Temp. Windchill Dew Point Humidity Pressure Visibility Wind Dir Wind Speed Gust Speed Precip Events Conditions
12:53 AM 28.0 °F 24.2 °F 17.1 °F 63% 30.30 in 10.0 mi SSW 3.5 mph - N/A   Clear
1:53 AM 26.1 °F - 17.1 °F 69% 30.30 in 10.0 mi Calm Calm - N/A   Clear
2:53 AM 25.0 °F - 18.0 °F 75% 30.30 in 10.0 mi Calm Calm - N/A   Clear
3:53 AM 24.1 °F - 19.0 °F 81% 30.31 in 10.0 mi Calm Calm - N/A   Clear
4:53 AM 24.1 °F - 19.0 °F 81% 30.32 in 10.0 mi Calm Calm - N/A   Clear
5:53 AM 23.0 °F - 19.0 °F 85% 30.32 in 10.0 mi Calm Calm - N/A   Partly Cloudy
6:53 AM 23.0 °F 18.4 °F 18.0 °F 81% 30.33 in 10.0 mi Variable 3.5 mph - N/A   Scattered Clouds
7:53 AM 24.1 °F - 18.0 °F 77% 30.34 in 10.0 mi Calm Calm - N/A   Clear
8:53 AM 33.1 °F 23.9 °F 14.0 °F 46% 30.35 in 10.0 mi ESE 12.7 mph 19.6 mph N/A   Scattered Clouds
9:53 AM 35.1 °F 24.5 °F 12.9 °F 40% 30.36 in 10.0 mi East 18.4 mph 23.0 mph N/A   Scattered Clouds
10:53 AM 35.1 °F 23.5 °F 12.9 °F 40% 30.38 in 10.0 mi ESE 21.9 mph 26.5 mph N/A   Scattered Clouds
11:53 AM 36.0 °F 26.7 °F 14.0 °F 41% 30.39 in 10.0 mi ESE 15.0 mph 25.3 mph N/A   Partly Cloudy
12:53 PM 37.0 °F 27.7 °F 14.0 °F 39% 30.40 in 10.0 mi ESE 16.1 mph 26.5 mph N/A   Partly Cloudy
1:53 PM 37.9 °F 29.2 °F 14.0 °F 38% 30.40 in 10.0 mi East 15.0 mph - N/A   Partly Cloudy
2:53 PM 37.9 °F 28.9 °F 14.0 °F 38% 30.39 in 10.0 mi ESE 16.1 mph - N/A   Partly Cloudy
3:53 PM 37.9 °F 28.9 °F 12.9 °F 36% 30.39 in 10.0 mi East 16.1 mph - N/A   Partly Cloudy
4:53 PM 37.9 °F 28.9 °F 12.0 °F 35% 30.40 in 10.0 mi East 16.1 mph 25.3 mph N/A   Partly Cloudy
5:53 PM 37.0 °F 27.4 °F 10.9 °F 34% 30.40 in 10.0 mi East 17.3 mph - N/A   Partly Cloudy
6:53 PM 36.0 °F 27.1 °F 10.9 °F 36% 30.40 in 10.0 mi East 13.8 mph - N/A   Partly Cloudy
7:53 PM 33.1 °F 26.9 °F 12.0 °F 42% 30.42 in 10.0 mi ENE 6.9 mph - N/A   Partly Cloudy
8:53 PM 32.0 °F 23.6 °F 12.9 °F 45% 30.43 in 10.0 mi East 10.4 mph - N/A   Clear
9:53 PM 30.9 °F 24.3 °F 12.9 °F 47% 30.45 in 10.0 mi East 6.9 mph - N/A   Clear
10:53 PM 27.0 °F - 16.0 °F 63% 30.46 in 10.0 mi Calm Calm - N/A   Clear
11:53 PM 26.1 °F - 18.0 °F 71% 30.47 in 10.0 mi Calm Calm - N/A   Clear